Location: Risskov
(56.1972°N, 10.2480°E)
Time: 12:47:26
(UTC+00:00)

YAOGAN 11 - Pass Details

Date: 05 July 2020
Orbit: 615 x 668 km, 98.3° (Epoch: 06 August)

Event Time Altitude Azimuth Distance (km) Brightness Sun altitude
Exits shadow 23:09:09 15° 164° (SSE) 1,692 5.7 -11.1°
Maximum altitude 23:12:45 86° 255° (WSW) 645 4.1 -11.1°
Drops below altitude 10° 23:17:14 10° 343° (NNW) 2,052 8.1 -11.1°
Sets 23:19:28 0° 344° (NNW) 2,976 9.3 -11.1°
